Regional Weather Roundup
Issued by NWS

Home | Current Version | Previous Version | Text Only | Print | Product List | Glossary On
Versions: 1 2 3 4 5 6 7 8 9 10 11 12 13 14 15 16 17 18 19 20 21 22 23 24 25 26 27 28 29 30 31 32 33 34 35 36 37 38 39 40 41 42 43 44 45 46 47 48 49 50
000
ASCA44 KEWX 291020
RWRMX

LATIN AMERICA AND CARIBBEAN REGIONAL WEATHER ROUNDUP
NATIONAL WEATHER SERVICE AUSTIN/SAN ANTONIO TX
500 AM CDT FRI JUL 29 2016

NOTE: "FAIR" INDICATED FEW OR NO CLOUDS BELOW 12,000 FEET WITH NO
SIGNIFICANT WEATHER AND/OR OBSTRUCTIONS TO VISIBILITY.

BAJA CALIFORNIA

CITY           SKY/WX    TMP DP  RH WIND       PRES   REMARKS
S.J. DEL CABO    N/A    N/A N/A N/A MISG        N/A
TIJUANA        CLEAR     68  63  83 W3        29.85F

NORTHWESTERN MEXICO

CITY           SKY/WX    TMP DP  RH WIND       PRES   REMARKS
HERMOSILLO     CLOUDY    81  73  78 E13       29.87

NORTHEASTERN MEXICO

CITY           SKY/WX    TMP DP  RH WIND       PRES   REMARKS
MONCLOVA         N/A    N/A N/A N/A MISG        N/A
MONTERREY      PTCLDY    75  70  83 E6        29.94F
NUEVO LAREDO   CLEAR     79  73  83 SE8       29.94
REYNOSA          N/A    N/A N/A N/A MISG        N/A
CD. VICTORIA     N/A    N/A N/A N/A MISG        N/A

WESTERN MEXICO

CITY           SKY/WX    TMP DP  RH WIND       PRES   REMARKS
AGUASCALIENTES MOCLDY    59  57  94 NE3       30.26
COLIMA           N/A    N/A N/A N/A MISG        N/A
DEL BAJIO      CLOUDY    61  59  94 SW6       30.28
GUADALAJARA    CLOUDY    64  63  94 CALM      30.16
MAZATLAN       PTCLDY    77  75  94 CALM      29.86F
P. VALLARTA    CLOUDY    77  75  94 NE5       29.86S
URUAPAN          N/A    N/A N/A N/A MISG        N/A
ZACATECAS        N/A    N/A N/A N/A MISG        N/A

CENTRAL MEXICO

CITY           SKY/WX    TMP DP  RH WIND       PRES   REMARKS
CUERNAVACA       N/A    N/A N/A N/A MISG        N/A
MEXICO CITY    MOCLDY    57  52  82 NE6       30.33F
MORELIA        MOCLDY    54  54 100 CALM      30.23
POZA RICA        N/A    N/A N/A N/A MISG        N/A
PUEBLA         MOCLDY    57  52  82 S7        30.35
S. LUIS POTOSI MOCLDY    61  55  82 E5        30.24F
TOLUCA         PTCLDY    50  48  93 CALM      30.39R

SOUTHERN MEXICO

CITY           SKY/WX    TMP DP  RH WIND       PRES   REMARKS
ACAPULCO       CLOUDY    75  73  94 N7        29.88F
B. DE HUATULCO   N/A    N/A N/A N/A MISG        N/A
P. ESCONDIDO     N/A    N/A N/A N/A MISG        N/A
VERACRUZ         N/A    N/A N/A N/A MISG        N/A

YUCATAN PENINSULA

CITY           SKY/WX    TMP DP  RH WIND       PRES   REMARKS
CAMPECHE         N/A    N/A N/A N/A MISG        N/A
CANCUN         PTCLDY    82  77  83 E8        29.97R HX  91
CHETUMAL         N/A    N/A N/A N/A MISG        N/A
CD. DEL CARMEN   N/A    N/A N/A N/A MISG        N/A
COZUMEL        PTCLDY    73  73 100 CALM      29.96S
MERIDA         PTCLDY    75  73  94 CALM      29.96S
MINATITLAN     MOCLDY    75  68  78 CALM      29.83
TAPACHULA      PTCLDY    77  73  88 CALM      29.82R
VILLAHERMOSA   MOCLDY    75  73  94 NE8       29.89

CENTRAL AMERICA

CITY           SKY/WX    TMP DP  RH WIND       PRES   REMARKS
MANAGUA        MOSUNNY   79  72  78 CALM      29.80S

CARIBBEAN

CITY           SKY/WX    TMP DP  RH WIND       PRES   REMARKS
ARUBA          PTCLDY    79  73  83 E12       29.89S
CURACAO        PTCLDY    82  77  83 E12       29.92S HX  91
KINGSTON       PTCLDY    82  70  65 NW7       29.92S
NASSAU         PTCLDY    82  79  89 CALM      30.05S HX  93
SAN JUAN       PTCLDY    79  75  89 CALM      29.99R
SANTO DOMINGO  PTCLDY    75  73  94 NE5       29.94S
ST. CROIX      MOCLDY    79  75  89 NE3       29.99
ST. KITTS      PTCLDY    82  75  78 E14       29.97
ST. MAARTEN    PTCLDY    82  75  78 E13       29.97S

$$




USA.gov is the U.S. government's official web portal to all federal, state and local government web resources and services.